You are not logged in, Click here to log in
機場資訊:RJOM Welcome to Taiwan Airways 台灣虛擬航空
ICAO: RJOM Country: 日本愛媛縣松山市
Latitude: 33.829 Longitude: 132.704
Total Arrivals: 17 Total Departures: 19
Latest Arrival: OC1107 (RCSS-RJOM)Jason. Li Latest Departure: NH1883 (RJOM-ROAH)Jason. Li
Scenery:
METAR : RJOM 211200Z 06008KT 9999 FEW025 19/16 Q1012

松山機場MYJ